| time (UTC) | temp F | wind direction | speed knots | gust knots | rain 1hr in | rain 24hr in | rain mn in | humidity % | barometer mb |
| 20260508033014 | 50 | 106 | 1.7 | 3.5 | 0.01 | 0.01 | 0.01 | 89 | 1014.7 |
| 20260508031512 | 50 | 82 | 1.7 | 3.5 | 0.01 | 0.01 | 0.01 | 88 | 1014.8 |
| 20260508030014 | 50 | 138 | 1.7 | 6.1 | 0.00 | 0.00 | 0.00 | 88 | 1014.9 |
| 20260508024512 | 50 | 116 | 1.7 | 6.1 | 0.00 | 0.00 | 0.00 | 88 | 1014.9 |
| 20260508021510 | 50 | 120 | 3.5 | 7.0 | 0.00 | 0.00 | 0.00 | 87 | 1014.9 |
| 20260508020013 | 50 | 120 | 2.6 | 7.8 | 0.00 | 0.00 | 0.00 | 86 | 1014.9 |
| 20260508014512 | 50 | 146 | 1.7 | 5.2 | 0.00 | 0.00 | 0.00 | 86 | 1015.1 |
| 20260508013013 | 50 | 109 | 1.7 | 7.0 | 0.00 | 0.00 | 0.00 | 85 | 1015.2 |
| 20260508004511 | 51 | 119 | 2.6 | 7.0 | 0.00 | 0.00 | 0.00 | 84 | 1015.2 |
| 20260508003012 | 51 | 109 | 1.7 | 7.0 | 0.00 | 0.00 | 0.00 | 84 | 1015.3 |
| 20260508001513 | 51 | 103 | 2.6 | 6.1 | 0.00 | 0.00 | 0.00 | 84 | 1015.3 |
| 20260508000023 | 51 | 118 | 0.9 | 6.1 | 0.00 | 0.00 | 0.00 | 84 | 1015.4 |
| 20260507234512 | 52 | 191 | 1.7 | 6.1 | 0.00 | 0.00 | 0.00 | 83 | 1015.5 |
| 20260507233013 | 52 | 180 | 1.7 | 6.1 | 0.00 | 0.00 | 0.00 | 83 | 1015.4 |
| 20260507231512 | 52 | 148 | 2.6 | 6.1 | 0.00 | 0.00 | 0.00 | 82 | 1015.3 |
| 20260507230013 | 52 | 117 | 3.5 | 7.8 | 0.00 | 0.00 | 0.00 | 81 | 1015.3 |
| 20260507224511 | 52 | 155 | 2.6 | 6.1 | 0.00 | 0.00 | 0.00 | 79 | 1015.4 |
| 20260507223019 | 52 | 217 | 2.6 | 7.0 | 0.00 | 0.00 | 0.00 | 77 | 1015.4 |
| 20260507221512 | 52 | 113 | 1.7 | 6.1 | 0.00 | 0.00 | 0.00 | 76 | 1015.5 |
| 20260507220013 | 52 | 138 | 2.6 | 7.0 | 0.00 | 0.00 | 0.00 | 75 | 1015.5 |
| 20260507214512 | 52 | 123 | 2.6 | 7.8 | 0.00 | 0.00 | 0.00 | 73 | 1015.6 |
| 20260507213012 | 52 | 111 | 2.6 | 8.7 | 0.00 | 0.00 | 0.00 | 72 | 1015.6 |
| 20260507211514 | 52 | 161 | 1.7 | 7.0 | 0.00 | 0.00 | 0.00 | 69 | 1015.6 |
| 20260507205211 | 52 | 130 | 1.7 | 4.3 | 0.00 | 0.00 | 0.00 | 70 | 1015.5 |
| 20260507200713 | 52 | 122 | 0.9 | 2.6 | 0.00 | 0.00 | 0.00 | 68 | 1015.0 |
| 20260507195211 | 53 | 126 | 0.9 | 3.5 | 0.00 | 0.00 | 0.00 | 67 | 1014.8 |
| 20260507193713 | 53 | 142 | 0.0 | 1.7 | 0.00 | 0.00 | 0.00 | 68 | 1014.8 |
| 20260507192211 | 54 | 126 | 0.0 | 2.6 | 0.00 | 0.00 | 0.00 | 69 | 1014.8 |
| 20260507190713 | 54 | 173 | 2.6 | 5.2 | 0.00 | 0.00 | 0.00 | 66 | 1014.8 |
| 20260507185211 | 55 | 181 | 3.5 | 6.1 | 0.00 | 0.00 | 0.00 | 66 | 1014.8 |
| 20260507183712 | 55 | 203 | 2.6 | 5.2 | 0.00 | 0.00 | 0.00 | 66 | 1014.8 |
| 20260507182213 | 56 | 196 | 3.5 | 7.0 | 0.00 | 0.00 | 0.00 | 64 | 1014.7 |
| 20260507180712 | 56 | 184 | 2.6 | 6.1 | 0.00 | 0.00 | 0.00 | 61 | 1014.6 |
| 20260507175211 | 57 | 167 | 4.3 | 7.8 | 0.00 | 0.00 | 0.00 | 62 | 1014.6 |
| 20260507173713 | 58 | 198 | 5.2 | 8.7 | 0.00 | 0.00 | 0.00 | 61 | 1014.5 |
| 20260507172212 | 58 | 185 | 4.3 | 10.4 | 0.00 | 0.00 | 0.00 | 62 | 1014.5 |
| 20260507170712 | 59 | 187 | 4.3 | 8.7 | 0.00 | 0.00 | 0.00 | 59 | 1014.5 |
| 20260507170025 | 59 | 191 | 6.1 | 10.4 | 0.00 | 0.00 | 0.00 | 58 | 1014.5 |
| 20260507164510 | 60 | 207 | 7.0 | 11.3 | 0.00 | 0.00 | 0.00 | 54 | 1014.5 |
| 20260507163022 | 0 | 0.0 | 0.0 | 0.00 | 0.00 | 0.00 | |||
| 20260507161520 | 0 | 0.0 | 0.0 | 0.00 | 0.00 | 0.00 | |||
| 20260507160032 | 59 | 198 | 7.0 | 12.2 | 0.00 | 0.00 | 0.00 | 61 | 1014.6 |
| 20260507154539 | 60 | 169 | 4.3 | 8.7 | 0.00 | 0.00 | 0.00 | 64 | 1014.6 |
| 20260507153027 | 59 | 164 | 4.3 | 8.7 | 0.00 | 0.00 | 0.00 | 64 | 1014.7 |
| 20260507151646 | 59 | 159 | 6.1 | 11.3 | 0.00 | 0.00 | 0.00 | 63 | 1014.7 |
| 20260507144738 | 62 | 173 | 4.3 | 9.6 | 0.00 | 0.00 | 0.00 | 64 | 1014.8 |
| 20260507141643 | 61 | 179 | 7.0 | 13.0 | 0.00 | 0.00 | 0.00 | 64 | 1015.1 |
| 20260507140029 | 62 | 214 | 7.0 | 12.2 | 0.00 | 0.00 | 0.00 | 61 | 1015.0 |
| 20260507134515 | 60 | 185 | 7.8 | 12.2 | 0.00 | 0.00 | 0.00 | 62 | 1015.0 |
| 20260507133013 | 62 | 177 | 5.2 | 13.9 | 0.00 | 0.00 | 0.00 | 60 | 1015.1 |
| 20260507130029 | 61 | 195 | 5.2 | 9.6 | 0.00 | 0.00 | 0.00 | 61 | 1015.2 |
| 20260507124511 | 61 | 174 | 7.0 | 10.4 | 0.00 | 0.00 | 0.00 | 57 | 1015.3 |
| 20260507123013 | 62 | 188 | 5.2 | 12.2 | 0.00 | 0.00 | 0.00 | 56 | 1015.4 |
| 20260507121620 | 61 | 196 | 7.0 | 12.2 | 0.00 | 0.00 | 0.00 | 59 | 1015.4 |
| 20260507120018 | 58 | 190 | 6.1 | 9.6 | 0.00 | 0.00 | 0.00 | 65 | 1015.4 |
| 20260507114514 | 59 | 209 | 5.2 | 11.3 | 0.00 | 0.00 | 0.00 | 66 | 1015.5 |
| 20260507113013 | 59 | 181 | 7.8 | 14.8 | 0.00 | 0.00 | 0.00 | 65 | 1015.5 |
| 20260507111511 | 58 | 178 | 6.1 | 12.2 | 0.00 | 0.00 | 0.00 | 67 | 1015.5 |
| 20260507104546 | 59 | 212 | 7.8 | 13.0 | 0.00 | 0.00 | 0.00 | 68 | 1015.7 |
| 20260507101545 | 57 | 191 | 4.3 | 8.7 | 0.00 | 0.00 | 0.00 | 67 | 1015.6 |
| 20260507100011 | 58 | 157 | 4.3 | 10.4 | 0.00 | 0.00 | 0.00 | 70 | 1015.6 |
| 20260507094513 | 57 | 207 | 4.3 | 14.8 | 0.00 | 0.00 | 0.00 | 70 | 1015.6 |
| 20260507093012 | 56 | 174 | 3.5 | 8.7 | 0.00 | 0.00 | 0.00 | 73 | 1015.6 |
| 20260507091514 | 56 | 178 | 3.5 | 8.7 | 0.00 | 0.00 | 0.00 | 74 | 1015.7 |
| 20260507090057 | 56 | 201 | 4.3 | 8.7 | 0.00 | 0.00 | 0.00 | 76 | 1015.7 |
| 20260507083042 | 55 | 180 | 2.6 | 7.0 | 0.00 | 0.00 | 0.00 | 81 | 1015.7 |
| 20260507080013 | 53 | 163 | 1.7 | 7.0 | 0.00 | 0.00 | 0.00 | 82 | 1015.8 |
| 20260507074517 | 52 | 136 | 1.7 | 5.2 | 0.00 | 0.00 | 0.00 | 82 | 1015.6 |
| 20260507073027 | 51 | 111 | 2.6 | 6.1 | 0.00 | 0.00 | 0.00 | 82 | 1015.6 |
| 20260507071517 | 51 | 138 | 1.7 | 6.1 | 0.00 | 0.00 | 0.00 | 83 | 1015.6 |
| 20260507070027 | 50 | 122 | 1.7 | 5.2 | 0.00 | 0.00 | 0.00 | 84 | 1015.5 |
| 20260507064523 | 49 | 113 | 1.7 | 2.6 | 0.00 | 0.00 | 0.00 | 84 | 1015.5 |
| 20260507063012 | 48 | 232 | 0.9 | 1.7 | 0.00 | 0.00 | 0.00 | 84 | 1015.6 |
| 20260507061512 | 47 | 304 | 0.9 | 3.5 | 0.00 | 0.00 | 0.00 | 85 | 1015.6 |
| 20260507060018 | 46 | 127 | 1.7 | 6.1 | 0.00 | 0.00 | 0.00 | 85 | 1015.4 |
| 20260507054511 | 46 | 111 | 1.7 | 5.2 | 0.00 | 0.00 | 0.00 | 84 | 1015.3 |
| 20260507053022 | 46 | 112 | 0.9 | 5.2 | 0.00 | 0.00 | 0.00 | 83 | 1015.2 |
| 20260507051511 | 46 | 107 | 1.7 | 6.1 | 0.00 | 0.00 | 0.00 | 83 | 1015.0 |
| 20260507050031 | 46 | 98 | 1.7 | 5.2 | 0.00 | 0.00 | 0.00 | 82 | 1015.0 |
| 20260507044513 | 46 | 118 | 2.6 | 7.0 | 0.00 | 0.00 | 0.00 | 82 | 1014.9 |
| 20260507043012 | 46 | 121 | 3.5 | 6.1 | 0.00 | 0.00 | 0.00 | 81 | 1014.9 |
| 20260507041512 | 46 | 118 | 2.6 | 5.2 | 0.00 | 0.00 | 0.00 | 81 | 1014.9 |
| 20260507040013 | 46 | 121 | 2.6 | 6.1 | 0.00 | 0.00 | 0.00 | 81 | 1015.0 |